Terminal Aerodrome Forecast
Issued by NWS Quad Cities IA IL

Home | Current Version | Previous Version | Text Only | Print | Product List | Glossary On
Versions: 1 2 3 4 5 6 7 8 9 10 11 12 13 14 15 16 17 18 19 20 21 22 23 24 25
000
FTUS43 KDVN 260700 AAA
TAFMLI
TAF AMD
KMLI 260757Z 2608/2706 18012G18KT P6SM BKN200 WS015/21045KT
     FM261500 21014KT P6SM BKN150
     FM270000 19005KT P6SM VCSH SCT020 OVC035=

USA.gov is the U.S. government's official web portal to all federal, state and local government web resources and services.